Regional Weather Roundup
Issued by NWS Upton, NY

Current Version | Previous Version | Text Only | Print | Product List | Glossary Off
Versions: 1 2 3 4 5 6 7 8 9 10 11 12 13 14 15 16 17 18 19 20 21 22 23 24 25 26

000
ASUS41 KOKX 101808
RWROKX

REGIONAL WEATHER ROUNDUP
NATIONAL WEATHER SERVICE NEW YORK NY
100 PM EST SUN DEC 10 2017

NOTE: "FAIR" INDICATES FEW OR NO CLOUDS BELOW 12,000 FEET WITH NO
SIGNIFICANT WEATHER AND/OR OBSTRUCTIONS TO VISIBILITY.

NYZ071-072-176-178-NJZ106-104-101900-
NEW YORK CITY METRO AREA

CITY           SKY/WX    TMP DP  RH WIND       PRES   REMARKS
Central Park   SUNNY     38  23  55 MISG      29.93S
Bronx Bot Gard   N/A     37  23  56 SW13      29.92F WCI  29
Bronx Lehman C   N/A     37  23  56 W6          N/A  WCI  33
LaGuardia APRT MOSUNNY   39  23  52 W12       29.91S WCI  32
Queens College   N/A     37  25  60 W12         N/A  WCI  30
Kennedy INTL   MOSUNNY   37  25  61 W22G28    29.93S WCI  26
Breezy Point     N/A     37 N/A N/A W14G22      N/A  WCI  29
Brooklyn Coll    N/A     37  25  60 W14         N/A  WCI  29
Staten Island    N/A     36  25  64 W13         N/A  WCI  27
Newark/Liberty MOSUNNY   38  24  57 SW17      29.92F WCI  28
Teterboro      SUNNY     38  22  52 W17G23    29.91S WCI  28
$$

NYZ177-179-078>081-101900-
LONG ISLAND NEW YORK

CITY           SKY/WX    TMP DP  RH WIND       PRES   REMARKS
Jones Beach      N/A     37 N/A N/A W15         N/A  WCI  28
Wantagh          N/A     37  27  65 W10         N/A  WCI  30
Matinecock PT    N/A     37 N/A N/A SW20        N/A  WCI  27
Farmingdale    SUNNY     37  25  61 W14       29.90F WCI  28
MacArthur/ISP  MOSUNNY   37  26  64 W15       29.89S WCI  28
Shirley        SUNNY     38  28  67 W13       29.89S WCI  30
Mt Sinai Harb    N/A    N/A N/A N/A W8G15       N/A
Westhampton    NOT AVBL
East Hampton   FAIR      38  27  62 W12G22    29.86S WCI  31
Southold         N/A     39  28  65 W7          N/A  WCI  34
Montauk          N/A     41  29  62 W13G21    29.86S
$$

NYZ052-065-067-101900-
HUDSON VALLEY

CITY           SKY/WX    TMP DP  RH WIND       PRES   REMARKS
White Plains   MOSUNNY   37  22  54 W12       29.87S WCI  29
Larchmont Harb   N/A     36 N/A N/A SW14        N/A  WCI  27
Croton On Huds   N/A     37 N/A N/A W14         N/A  WCI  29
Somers           N/A     36  23  60 W8          N/A  WCI  29
Brewster         N/A     34  21  60 W10         N/A  WCI  26
Newburgh       PTSUNNY   36  25  64 W18       29.87R WCI  25
Montgomery     PTSUNNY   36  23  59 W10       29.86R WCI  28
Otisville        N/A     34  23  64 W8          N/A  WCI  27
Warwick          N/A     36  25  64 W10         N/A  WCI  28
Suffern          N/A     34  23  64 W8          N/A  WCI  27
Poughkeepsie   SUNNY     36  22  56 W17G25    29.86R WCI  26
Albany         PTSUNNY   35  21  56 W13G22    29.82S WCI  26
$$

NJZ001-105-106-008-010-013-015-019>022-104-101900-
NEW JERSEY

CITY           SKY/WX    TMP DP  RH WIND       PRES   REMARKS
Newark/Liberty MOSUNNY   38  24  57 SW17      29.92F WCI  28
Teterboro      SUNNY     38  22  52 W17G23    29.91S WCI  28
Caldwell       MOSUNNY   38  22  52 W9G18     29.91S WCI  31
Somerville     SUNNY     38  24  57 W9G20     29.92S WCI  31
Linden         FLURRIES  37  23  57 W12G22    29.93S WCI  30
Perth Amboy      N/A     36 N/A N/A W20G25      N/A  WCI  25
Sussex         SUNNY     38  22  52 W10       29.87S WCI  31
Andover        NOT AVBL
Trenton        MOSUNNY   38  24  57 W13       29.95F WCI  30
Millville      SUNNY     39  26  59 W15G24    30.00F WCI  31
Atlantic City  SUNNY     39  25  57 W12       29.98F WCI  32
Wrightstown    SUNNY     38  24  57 W12       29.93F WCI  31
Toms River     SUNNY     38  28  67 W10       29.96F WCI  31
Belmar         SUNNY     36  24  62 W17       29.94F WCI  26
$$

PAZ047>061-062-071-101900-
EASTERN PENNSYLVANIA

CITY           SKY/WX    TMP DP  RH WIND       PRES   REMARKS
Philadelphia   MOSUNNY   39  23  52 W22G28    29.99F WCI  29
Allentown      PTSUNNY   37  22  54 W15G26    29.93F WCI  28
Scranton       CLOUDY    33  24  69 SW13      29.86S WCI  24
$$

CTZ002-004>006-009-010-012-RIZ004-006-007-MAZ004-011-015-101900-
SOUTHERN NEW ENGLAND
 IN CT

CITY           SKY/WX    TMP DP  RH WIND       PRES   REMARKS
Bradley INTL   MOSUNNY   37  23  56 W12       29.83S WCI  29
Hartford       SUNNY     38  24  57 SW5       29.84F WCI  34
Danbury        SUNNY     37  21  52 W15G21    29.86S WCI  28
Wtrbury/Oxford MOSUNNY   35  21  56 W8        29.83S WCI  29
Norwalk Harbor   N/A     36 N/A N/A SW18        N/A  WCI  25
Bridgeport     SUNNY     40  24  53 W12       29.87S WCI  33
Meriden        SUNNY     37  22  54 NW8       29.85R WCI  31
New Haven      MOSUNNY   39  23  52 W8        29.86S WCI  33
Chester        FAIR      39  23  52 W7G15     29.83S WCI  34
Groton         SUNNY     38  25  59 W9        29.84F WCI  31
Wilimantic     SUNNY     37  25  61 SW8       29.84S WCI  31

 IN RI

CITY           SKY/WX    TMP DP  RH WIND       PRES   REMARKS
Providence     MOSUNNY   38  26  62 W8        29.83S WCI  32
Block Island     N/A    N/A N/A N/A MISG        N/A
Westerly       SUNNY     40  27  59 W8        29.84F WCI  34
 IN MA

CITY           SKY/WX    TMP DP  RH WIND       PRES   REMARKS
Boston         MOSUNNY   37  25  61 W14G24    29.78  WCI  28
Worcester      PTSUNNY   31  21  66 W15G22    29.76S WCI  20
Westfield      PTSUNNY   35  22  58 W13G21    29.82R WCI  26
Provincetown   SUNNY     40  29  64 W13         N/A  WCI  32
Nantucket      SUNNY     40  29  64 W17G25    29.82R WCI  31
$$

ANZ330-335-338-340-345-350-353-355-101900-
COASTAL MARINE OBSERVATIONS


STATION/POSITION TIME  SKY/WX   TEMP    WIND        PRES    VSBY  WAVE
                                AIR SEA DIR/SP/G                  HT/PER
                 (UTC)          (F)     (DEG/KT/KT) (MB)    (MI)  (FT/S)
NY HARB ENTRANCE 1650            38 52  280/ 19/ 25 1012.4          4/ 9
20 S FIRE ISLAND 1650            38 53  290/ 17/ 21 1012.7          6/ 6
GREAT SOUTH BAY  1730            36 45  270/ 14/ 16   N/A
HUDSON CANYON    1650            41 56  290/ 17/ 23 1013.1          8/10
KINGS POINT      1730            38 46  310/ 12/ 17 1013.4
EXECUTION ROCKS  1745            42     230/ 16/ 19   N/A
WESTERN LI SOUND 1649            38     270/ 14/ 19   N/A           1/ 3
CENTRAL LI SOUND 1653            38     270/ 17/ 21   N/A           3
ROBBINS REEF     1730            36     270/ 18/ 24 1013.6
$$


>>>>>>>>>>>>>>>>>>>>>>>>>>>> KEY <<<<<<<<<<<<<<<<<<<<<<<<<<<
>                                                          <
>     SKY/WX - Sky Condition/Present Weather               <
>     TMP    - Temperature in Fahrenheit                   <
>     DP     - Dew Point in Fahrenheit                     <
>     RH     - Relative Humidity in Percent                <
>     WIND   - Direction (from) and Speed in MPH           <
>     PRES   - Mean Sea Level Pressure (inches of Hg)      <
>     WCI    - Wind Chill Index                            <
>     VSB    - VISIBILITY IN MILES                         <
>     HX     - HEAT INDEX                                  <
>     TC     - TEMPERATURE IN CELSIUS                      <
>     VRB    - VARIABLE WIND DIRECTION                     <
>                                                          <
>>>>>>>>>>>>>>>>>>>>>>>>>>>> KEY <<<<<<<<<<<<<<<<<<<<<<<<<<<




USA.gov is the U.S. government's official web portal to all federal, state and local government web resources and services.